Location: eljas
(40.1958°N, 6.8661°W)
Time: 09:29:21
(UTC+01:00)

ISS - All Passes

Search period start: 28 November 2014 00:00
Search period end: 08 December 2014 00:00
Orbit: 407 x 417 km, 51.6° (Epoch: 27 November)

Date Brightness Start Highest point End Pass type
(mag) Time Alt. Az. Time Alt. Az. Time Alt. Az.
28 Nov - 00:51:01 10° WSW 00:54:09 41° NNW 00:57:17 10° NE night (unlit)
28 Nov - 02:29:44 10° NW 02:31:28 14° NNW 02:33:13 10° NNE night (unlit)
28 Nov - 04:07:42 10° NNW 04:09:13 13° N 04:10:45 10° NE night (unlit)
28 Nov - 05:43:38 10° NW 05:46:39 32° NNE 05:49:40 10° E visible
28 Nov - 07:20:20 10° WNW 07:23:15 30° SW 07:26:10 10° SSE visible
28 Nov - 22:26:44 10° SSE 22:28:02 12° SE 22:29:20 10° ESE night (unlit)
29 Nov - 00:00:59 10° WSW 00:04:15 71° NW 00:07:32 10° NE night (unlit)
29 Nov - 01:39:10 10° WNW 01:41:22 16° NNW 01:43:34 10° NNE night (unlit)
29 Nov - 03:17:53 10° NNW 03:19:04 12° N 03:20:16 10° NNE night (unlit)
29 Nov - 04:53:59 10° NNW 04:56:39 22° NNE 04:59:20 10° ENE visible
29 Nov - 06:30:16 10° WNW 06:33:30 56° SW 06:36:44 10° SE visible
29 Nov - 23:11:10 10° SW 23:14:24 61° SE 23:17:39 10° ENE night (unlit)
30 Nov - 00:48:40 10° WNW 00:51:17 22° NNW 00:53:54 10° NNE night (unlit)
30 Nov - 02:27:42 10° NNW 02:28:53 11° N 02:30:03 10° NNE night (unlit)
30 Nov - 04:04:19 10° NNW 04:06:34 17° NNE 04:08:50 10° ENE night (unlit)
30 Nov - 05:40:21 10° NW 05:43:39 77° NE 05:46:56 10° ESE visible
30 Nov - 07:18:53 10° WSW 07:19:50 11° SW 07:20:48 10° SW visible
30 Nov - 22:21:37 10° SSW 22:24:35 32° SE 22:27:34 10° ENE night (unlit)
30 Nov - 23:58:15 10° W 00:01:13 30° NNW 00:04:11 10° NE night (unlit)
01 Dec - 01:37:12 10° NW 01:38:39 12° N 01:40:07 10° NNE night (unlit)
01 Dec - 03:14:36 10° NNW 03:16:24 14° NNE 03:18:12 10° NE night (unlit)
01 Dec - 04:50:32 10° NW 04:53:42 43° NNE 04:56:52 10° ESE night (unlit)
01 Dec - 06:27:38 10° W 06:30:08 20° SW 06:32:37 10° S visible
01 Dec - 21:32:32 10° S 21:34:49 18° SE 21:37:06 10° E night (unlit)
01 Dec - 23:07:59 10° WSW 23:11:11 49° NNW 23:14:24 10° NE night (unlit)
02 Dec - 00:46:32 10° NW 00:48:26 14° NNW 00:50:20 10° NNE night (unlit)
02 Dec - 02:24:47 10° NNW 02:26:10 12° N 02:27:33 10° NNE night (unlit)
02 Dec - 04:00:44 10° NW 04:03:39 28° NNE 04:06:33 10° E night (unlit)
02 Dec - 05:37:16 10° WNW 05:40:19 37° SW 05:43:23 10° SSE visible
02 Dec - 22:17:54 10° SW 22:21:11 88° NW 22:24:29 10° NE night (unlit)
02 Dec - 23:55:51 10° WNW 23:58:13 18° NNW 00:00:34 10° NNE night (unlit)
03 Dec - 01:34:44 10° NNW 01:35:53 11° N 01:37:01 10° NNE night (unlit)
03 Dec - 03:10:58 10° NNW 03:13:30 20° NNE 03:16:02 10° ENE night (unlit)
03 Dec - 04:47:08 10° WNW 04:50:25 71° SW 04:53:41 10° SE night (unlit)
03 Dec - 21:28:03 10° SSW 21:31:14 48° SE 21:34:25 10° ENE night (unlit)
03 Dec - 23:05:15 10° W 23:08:01 24° NNW 23:10:47 10° NNE night (unlit)
04 Dec - 00:44:18 10° NNW 00:45:33 12° N 00:46:48 10° NNE night (unlit)
04 Dec - 02:21:10 10° NNW 02:23:16 16° NNE 02:25:21 10° NE night (unlit)
04 Dec - 03:57:09 10° NW 04:00:25 62° NE 04:03:40 10° ESE night (unlit)
04 Dec - 05:34:56 10° W 05:36:41 14° SW 05:38:26 10° SSW night (unlit)
04 Dec - 20:38:32 10° SSW 20:41:19 26° SE 20:44:06 10° ENE visible
04 Dec - 22:14:46 10° W 22:17:50 36° NNW 22:20:55 10° NE night (unlit)
04 Dec - 23:53:36 10° NW 23:55:13 13° N 23:56:50 10° NNE night (unlit)
05 Dec - 01:31:19 10° NNW 01:32:57 13° N 01:34:35 10° NE night (unlit)
05 Dec - 03:07:13 10° NW 03:10:18 36° NNE 03:13:23 10° E night (unlit)
05 Dec - 04:44:04 10° WNW 04:46:49 25° SW 04:49:34 10° S night (unlit)
05 Dec - 19:49:35 10° SSE 19:51:26 14° SE 19:53:16 10° E visible
05 Dec - 21:24:27 10° WSW 21:27:42 60° NW 21:30:58 10° NE visible
05 Dec - 23:02:47 10° NW 23:04:52 16° NNW 23:06:56 10° NNE night (unlit)
06 Dec - 00:41:19 10° NNW 00:42:34 12° N 00:43:50 10° NNE night (unlit)
06 Dec - 02:17:19 10° NNW 02:20:06 24° NNE 02:22:52 10° E night (unlit)
06 Dec - 03:53:41 10° WNW 03:56:52 47° SW 04:00:01 10° SSE night (unlit)
06 Dec - 20:34:20 10° SW 20:37:36 74° SE 20:40:54 10° NE visible
06 Dec - 22:12:01 10° WNW 22:14:32 20° NNW 22:17:03 10° NNE night (unlit)
06 Dec - 23:51:00 10° NNW 23:52:09 11° N 23:53:18 10° NNE night (unlit)
07 Dec - 01:27:26 10° NNW 01:29:48 18° NNE 01:32:10 10° ENE night (unlit)
07 Dec - 03:03:30 10° NW 03:06:48 90° SW 03:10:05 10° SE night (unlit)
07 Dec - 19:44:28 10° SSW 19:47:33 38° SE 19:50:38 10° ENE visible
07 Dec - 21:21:20 10° W 21:24:13 28° NNW 21:27:07 10° NE visible
07 Dec - 23:00:19 10° NNW 23:01:42 12° N 23:03:04 10° NNE night (unlit)
